Weather History for Mumbai, India

Change the Weather History Date:

Friday, April 19, 2013

  Actual Average Record
Temperature  
Mean Temperature 82 °F -  
Max Temperature 89 °F 89 °F 93 °F (2002)
Min Temperature 74 °F 78 °F 74 °F (2013)
Cooling Degree Days 16    
Growing Degree Days 32 (Base 50)    
Moisture  
Dew Point 72 °F    
Average Humidity 69    
Maximum Humidity 74    
Minimum Humidity 55    
Precipitation  
Precipitation 0.00 in - - ()
Sea Level Pressure  
Sea Level Pressure 29.76 in    
Wind  
Wind Speed 6 mph ()    
Max Wind Speed 16 mph    
Max Gust Speed 24 mph    
Visibility 2.4 miles    
Events      
Averages and records for this station are not official NWS values.
T = Trace of Precipitation, MM = Missing Value Source: Averaged Metar Reports

Daily Weather History Graph

Daily Weather History Graph

Search for Another Location

Airport:

Trip Planner

Search our weather history database for the weather conditions in past years. The results will help you decide how hot, cold, wet, or windy it might be!

Date:

Astronomy

Apr. 19, 2013 Rise Set
Actual Time 6:18 AM IST 6:57 PM IST
Civil Twilight 5:56 AM IST 7:19 PM IST
Nautical Twilight 5:29 AM IST 7:46 PM IST
Astronomical Twilight 5:03 AM IST 8:12 PM IST
Moon 1:07 PM IST (4/19) 1:23 AM IST (4/19)
Length of Visible Light 13h 23m
Length of Day
12h 38m
First Quarter, 57% of the Moon is Illuminated
Apr 19
First Quarter
Apr 26
Full
May 2
Last Quarter
May 10
New
May 18
First Quarter

Hourly Weather History & Observations

Time (IST) Temp. Heat Index Dew Point Humidity Pressure Visibility Wind Dir Wind Speed Gust Speed Precip Events Conditions
12:10 AM 80.6 °F 84.6 °F 71.6 °F 74% 29.80 in 2.5 mi WSW 6.9 mph - N/A   Haze
12:40 AM 80.6 °F 84.6 °F 71.6 °F 74% 29.77 in 2.5 mi WSW 4.6 mph - N/A   Haze
1:10 AM 80.6 °F 84.6 °F 71.6 °F 74% 29.77 in 2.5 mi Variable 2.3 mph - N/A   Haze
1:40 AM 80.6 °F 84.6 °F 71.6 °F 74% 29.77 in 2.5 mi WSW 8.1 mph - N/A   Haze
2:10 AM 80.6 °F 84.6 °F 71.6 °F 74% 29.77 in 2.5 mi WSW 6.9 mph - N/A   Haze
2:30 AM 81 °F - 73 °F 70% 29.76 in 1 mi Calm Calm - -   Haze
2:40 AM 80.6 °F 84.6 °F 71.6 °F 74% 29.74 in 2.5 mi SW 4.6 mph - N/A   Haze
3:10 AM 80.6 °F 84.6 °F 71.6 °F 74% 29.74 in 2.5 mi SW 3.5 mph - N/A   Haze
3:40 AM 80.6 °F 84.6 °F 71.6 °F 74% 29.74 in 2.5 mi SSW 3.5 mph - N/A   Haze
4:10 AM 80.6 °F 84.6 °F 71.6 °F 74% 29.74 in 2.5 mi SW 3.5 mph - N/A   Haze
4:40 AM 80.6 °F 84.6 °F 71.6 °F 74% 29.74 in 2.5 mi SW 3.5 mph - N/A   Haze
5:10 AM 80.6 °F 84.6 °F 71.6 °F 74% 29.74 in 2.5 mi SW 3.5 mph - N/A   Haze
5:30 AM 79 °F - 72 °F 73% 29.76 in 1 mi Calm Calm - -   Haze
5:40 AM 80.6 °F 84.6 °F 71.6 °F 74% 29.77 in 2.5 mi West 3.5 mph - N/A   Haze
6:10 AM 80.6 °F 84.6 °F 71.6 °F 74% 29.77 in 2.5 mi West 3.5 mph - N/A   Haze
6:40 AM 80.6 °F 84.6 °F 71.6 °F 74% 29.77 in 2.5 mi Calm Calm - N/A   Haze
7:10 AM 80.6 °F 84.6 °F 71.6 °F 74% 29.80 in 2.5 mi SE 3.5 mph - N/A   Haze
8:10 AM 80.6 °F 84.6 °F 71.6 °F 74% 29.80 in 1.9 mi Calm Calm - N/A   Haze
8:30 AM 82 °F - 71 °F 62% 29.81 in 1 mi SW 3.5 mph - -   Smoke
8:40 AM 82.4 °F 87.2 °F 71.6 °F 70% 29.83 in 2.2 mi SSW 3.5 mph - N/A   Smoke
9:10 AM 82.4 °F 86.3 °F 69.8 °F 66% 29.83 in 2.5 mi Calm Calm - N/A   Smoke
9:40 AM 84.2 °F 88.4 °F 69.8 °F 62% 29.83 in 2.5 mi WSW 10.4 mph - N/A   Smoke
10:10 AM 84.2 °F 88.4 °F 69.8 °F 62% 29.83 in 2.5 mi WSW 10.4 mph - N/A   Smoke
10:40 AM 86.0 °F 90.4 °F 69.8 °F 58% 29.83 in 2.5 mi WSW 10.4 mph - N/A   Smoke
11:10 AM 86.0 °F 90.4 °F 69.8 °F 58% 29.80 in 2.5 mi WSW 9.2 mph - N/A   Smoke
11:30 AM 89 °F - 78 °F 64% 29.81 in 1 mi West 9.2 mph - -   Smoke
12:40 PM 86.0 °F 90.4 °F 69.8 °F 58% 29.77 in 3.7 mi WSW 8.1 mph 19.6 mph N/A   Partly Cloudy
1:10 PM 86.0 °F 90.4 °F 69.8 °F 58% 29.77 in 3.7 mi WSW 12.7 mph - N/A   Partly Cloudy
1:40 PM 86.0 °F 90.4 °F 69.8 °F 58% 29.74 in 3.7 mi WSW 9.2 mph 20.7 mph N/A   Partly Cloudy
2:10 PM 86.0 °F 89.4 °F 68.0 °F 55% 29.74 in 3.7 mi West 8.1 mph 19.6 mph N/A   Partly Cloudy
2:30 PM 88 °F - 80 °F 72% 29.74 in 2 mi West 6.9 mph - -   Partly Cloudy
3:10 PM 86.0 °F 91.8 °F 71.6 °F 62% 29.71 in 2.5 mi West 12.7 mph 24.2 mph N/A   Haze
3:40 PM 84.2 °F 89.6 °F 71.6 °F 66% 29.71 in 2.5 mi West 10.4 mph 21.9 mph N/A   Haze
4:10 PM 84.2 °F 89.6 °F 71.6 °F 66% 29.71 in 2.5 mi WNW 10.4 mph 21.9 mph N/A   Haze
4:40 PM 84.2 °F 89.6 °F 71.6 °F 66% 29.68 in 3.1 mi WSW 9.2 mph 20.7 mph N/A   Haze
5:10 PM 84.2 °F 89.6 °F 71.6 °F 66% 29.71 in 3.1 mi West 8.1 mph 19.6 mph N/A   Haze
5:30 PM 86 °F - 78 °F 73% 29.70 in 2 mi West 6.9 mph - -   Mostly Cloudy
5:40 PM 84.2 °F 89.6 °F 71.6 °F 66% 29.71 in 2.8 mi West 13.8 mph - N/A   Haze
6:10 PM 82.4 °F 87.2 °F 71.6 °F 70% 29.71 in 2.8 mi WSW 16.1 mph - N/A   Haze
6:40 PM 82.4 °F 87.2 °F 71.6 °F 70% 29.71 in 2.8 mi West 11.5 mph - N/A   Haze
7:10 PM 82.4 °F 87.2 °F 71.6 °F 70% 29.71 in 2.5 mi WSW 13.8 mph - N/A   Haze
7:40 PM 82.4 °F 87.2 °F 71.6 °F 70% 29.74 in 2.5 mi WSW 12.7 mph - N/A   Haze
8:10 PM 82.4 °F 87.2 °F 71.6 °F 70% 29.74 in 2.5 mi West 9.2 mph - N/A   Haze
8:30 PM 82 °F - 73 °F 67% 29.75 in 1 mi West 4.6 mph - -   Smoke
8:40 PM 82.4 °F 87.2 °F 71.6 °F 70% 29.74 in 2.5 mi West 9.2 mph - N/A   Haze
9:10 PM 82.4 °F 88.2 °F 73.4 °F 74% 29.77 in 2.5 mi West 10.4 mph - N/A   Haze
9:40 PM 82.4 °F 87.2 °F 71.6 °F 70% 29.77 in 2.5 mi West 6.9 mph - N/A   Haze
10:10 PM 82.4 °F 87.2 °F 71.6 °F 70% 29.77 in 2.5 mi West 8.1 mph - N/A   Haze
10:40 PM 80.6 °F 84.6 °F 71.6 °F 74% 29.77 in 2.5 mi WSW 6.9 mph - N/A   Haze
11:10 PM 82.4 °F 87.2 °F 71.6 °F 70% 29.77 in 2.5 mi West 8.1 mph - N/A   Haze
11:30 PM 81 °F - 72 °F 67% 29.78 in 1 mi West 4.6 mph - -   Smoke
11:40 PM 82.4 °F 87.2 °F 71.6 °F 70% 29.77 in 2.5 mi West 4.6 mph - N/A   Haze